Estación de Calama Rural INIA
Ultimos registro cada 15 minutos 47
| N° | Estación | Fecha / Hora | Temperatura | Humedad | Lluvia | Velocidad | Dirección | Radiación | Presion |
| 47 | Calama Rural INIA | 02-05-2026 11:30 | 28,8 | 4,8 | 0 | 0,3 | 66 | 554 | 782 |
| 46 | Calama Rural INIA | 02-05-2026 11:15 | 27,4 | 4,7 | 0 | 1,4 | 62 | 588 | 782 |
| 45 | Calama Rural INIA | 02-05-2026 11:00 | 26,2 | 5,3 | 0 | 1,1 | 61 | 603 | 782,2 |
| 44 | Calama Rural INIA | 02-05-2026 10:45 | 24,6 | 6 | 0 | 2,3 | 68 | 581 | 782,4 |
| 43 | Calama Rural INIA | 02-05-2026 10:30 | 23,6 | 6,7 | 0 | 2,1 | 71 | 554 | 782,3 |
| 42 | Calama Rural INIA | 02-05-2026 10:15 | 22 | 9,4 | 0 | 3,1 | 71 | 524 | 782,5 |
| 41 | Calama Rural INIA | 02-05-2026 10:00 | 20,6 | 5,4 | 0 | 3,3 | 67 | 493 | 782,4 |
| 40 | Calama Rural INIA | 02-05-2026 09:45 | 18,8 | 6,5 | 0 | 3,6 | 68 | 458 | 782,4 |
| 39 | Calama Rural INIA | 02-05-2026 09:30 | 17,7 | 6,8 | 0 | 3,7 | 71 | 421 | 782,4 |
| 38 | Calama Rural INIA | 02-05-2026 09:15 | 17,1 | 8,3 | 0 | 3,2 | 69 | 382 | 782,3 |
| 37 | Calama Rural INIA | 02-05-2026 09:00 | 16 | 8,1 | 0 | 3,8 | 66 | 340 | 782,4 |
| 36 | Calama Rural INIA | 02-05-2026 08:45 | 15 | 8,6 | 0 | 4,4 | 63 | 296 | 782,2 |
| 35 | Calama Rural INIA | 02-05-2026 08:30 | 13,6 | 7,2 | 0 | 4,2 | 68 | 254 | 782,3 |
| 34 | Calama Rural INIA | 02-05-2026 08:15 | 13,7 | 6,3 | 0 | 3,4 | 64 | 208 | 782 |
| 33 | Calama Rural INIA | 02-05-2026 08:00 | 12,3 | 7,7 | 0 | 2,8 | 66 | 158 | 782 |
| 32 | Calama Rural INIA | 02-05-2026 07:45 | 11,2 | 8,2 | 0 | 3,4 | 65 | 114 | 781,9 |
| 31 | Calama Rural INIA | 02-05-2026 07:30 | 10,4 | 7 | 0 | 3,9 | 60 | 56 | 781,8 |
| 30 | Calama Rural INIA | 02-05-2026 07:15 | 9,2 | 7,4 | 0 | 3,6 | 66 | 17 | 782 |
| 29 | Calama Rural INIA | 02-05-2026 07:00 | 8,7 | 7,9 | 0 | 3,1 | 66 | 10 | 781,8 |
| 28 | Calama Rural INIA | 02-05-2026 06:45 | 9,3 | 6,9 | 0 | 3 | 64 | 8 | 781,7 |
| 27 | Calama Rural INIA | 02-05-2026 06:30 | 8,6 | 9 | 0 | 0,5 | 51 | 8 | 781,5 |
| 26 | Calama Rural INIA | 02-05-2026 06:15 | 9,3 | 7,8 | 0 | 1,7 | 51 | 8 | 781,4 |
| 25 | Calama Rural INIA | 02-05-2026 06:00 | 10,3 | 9 | 0 | 2,1 | 62 | 8 | 781,2 |
| 24 | Calama Rural INIA | 02-05-2026 05:45 | 10,3 | 7,3 | 0 | 2,1 | 51 | 9 | 781,2 |
| 23 | Calama Rural INIA | 02-05-2026 05:30 | 9,9 | 9,2 | 0 | 0,3 | 58 | 8 | 781,1 |
| 22 | Calama Rural INIA | 02-05-2026 05:15 | 10,9 | 8,4 | 0 | 0,1 | 66 | 8 | 781,3 |
| 21 | Calama Rural INIA | 02-05-2026 05:00 | 10,6 | 7,4 | 0 | 1 | 55 | 10 | 781,4 |
| 20 | Calama Rural INIA | 02-05-2026 04:45 | 9,1 | 7,4 | 0 | 0,7 | 48 | 8 | 781,3 |
| 19 | Calama Rural INIA | 02-05-2026 04:30 | 8,6 | 7,7 | 0 | 2,4 | 57 | 8 | 781,3 |
| 18 | Calama Rural INIA | 02-05-2026 04:15 | 7,3 | 8,4 | 0 | 3,3 | 70 | 8 | 781,3 |
| 17 | Calama Rural INIA | 02-05-2026 04:00 | 6,4 | 9,7 | 0 | 3,6 | 75 | 8 | 781,3 |
| 16 | Calama Rural INIA | 02-05-2026 03:45 | 7,8 | 7,7 | 0 | 3,7 | 76 | 8 | 781,2 |
| 15 | Calama Rural INIA | 02-05-2026 03:30 | 10,1 | 7,5 | 0 | 2,9 | 65 | 8 | 781,1 |
| 14 | Calama Rural INIA | 02-05-2026 03:15 | 9,1 | 7,2 | 0 | 3,1 | 65 | 10 | 781,3 |
| 13 | Calama Rural INIA | 02-05-2026 03:00 | 9,2 | 9,4 | 0 | 1,7 | 62 | 8 | 781,4 |
| 12 | Calama Rural INIA | 02-05-2026 02:45 | 9,7 | 8,7 | 0 | 2,9 | 63 | 8 | 781,8 |
| 11 | Calama Rural INIA | 02-05-2026 02:30 | 9,3 | 8,1 | 0 | 0,2 | 56 | 8 | 781,9 |
| 10 | Calama Rural INIA | 02-05-2026 02:15 | 9,1 | 7 | 0 | 0,9 | 55 | 9 | 782 |
| 9 | Calama Rural INIA | 02-05-2026 02:00 | 8,7 | 6,9 | 0 | 2,3 | 59 | 8 | 782,2 |
| 8 | Calama Rural INIA | 02-05-2026 01:45 | 8,5 | 7,6 | 0 | 2 | 60 | 9 | 782,1 |
| 7 | Calama Rural INIA | 02-05-2026 01:30 | 8,9 | 7,6 | 0 | 2,8 | 65 | 9 | 782,3 |
| 6 | Calama Rural INIA | 02-05-2026 01:15 | 9,3 | 7,5 | 0 | 2 | 58 | 8 | 782,3 |
| 5 | Calama Rural INIA | 02-05-2026 01:00 | 9,1 | 7,7 | 0 | 2,7 | 58 | 8 | 782,4 |
| 4 | Calama Rural INIA | 02-05-2026 00:45 | 8,7 | 7,6 | 0 | 3,2 | 66 | 8 | 782,5 |
| 3 | Calama Rural INIA | 02-05-2026 00:30 | 8,6 | 7,6 | 0 | 3,7 | 67 | 10 | 782,5 |
| 2 | Calama Rural INIA | 02-05-2026 00:15 | 8,5 | 7,9 | 0 | 3,2 | 70 | 8 | 782,6 |
| 1 | Calama Rural INIA | 02-05-2026 00:00 | 8,5 | 7,7 | 0 | 3,7 | 70 | 8 | 782,5 |